Find Starlink 31994

NORAD ID: 60588 Int'l Des: 2024-150 Owner: SPXS Country: US Constellation: starlink operational
LEOCIRCULAR

現在のビュー

3D地球を読み込み中...

About Starlink 31994

Starlink 31994 (NORAD 60588) is a starlink constellation satellite (v2 mini) launched Aug 20, 2024 by SPXS of US. It operates in LEO, CIRCULAR orbit with a mass of 730.00 kg.

次回通過

Passes for default location (London). Set your location on the main map for personalized predictions.

高度履歴

Loading altitude history...

軌道要素

1 60588U 24150F 26264.87065537 -.00001265 00000-0 -26318-4 0 9990
2 60588 53.1607 111.0976 0001335 89.8984 270.2172 15.34383972118066
Epoch: Sep 21, 2026 • Age: 24 hours

現在のステータス

高度 466.9 km
遠地点 / 近地点 N/A
速度 7.64 km/s
衛星直下点 46.55°N, 79.83°W
打ち上げ日 Aug 20, 2024
運用期間 2 years
タイプ internet

技術仕様

分類 Payload
質量 730.00 kg
乾燥質量 700.00 kg
長さ 0.30 m
スパン 29.00 m
形状 ? Box + pan
製造者 SPXS
バスタイプ Starlink V2M
フェーズステータス In Orbit
所有者/国 SPXS/US

Most Searched